HULIANWANG DIGUI-124

导读 | 豆包AI

“HULIANWANG DIGUI-124”是中国于2025年12月11日发射的低轨互联网卫星,隶属于“互联网地球”星座系统。该卫星旨在增强全球网络覆盖能力,服务偏远地区网络接入需求,同时承载低轨卫星通信技术验证任务,推动卫星互联网商业化应用,助力构建天地一体的新型信息基础设施。

Basic Information
目录编号:
67064
目录名称:
HULIANWANG DIGUI-124
国际标识:
2025-295F
轨道中心:
EARTH
卫星名称:
HULIANWANG DIGUI-124
卫星全名:
HULIANWANG DIGUI-124
卫星状态:
在轨 (已飞行165 天)
发射日期:
2025-12-11 UTC
国别 :
中国 (CN)
星等 :
--
Orbit Information
数据来源 国际轨道数据 AOE轨道数据
星历时间 2026-05-24T12:59:17+0800
23小时前
查看轨道信息
2026-05-22T11:00:00+0800
3天前
查看轨道信息
半长轴 7527.446km 7527.45km
偏心率 0.0000826 0.0000059
轨道倾角 49.998° 49.997°
近地点辐角 350.684° 257.477°
升交点赤经 111.359° 118.832°
平近点角 9.401° 208.838°
近地点 1148.687km 1149.268km
远地点 1149.931km 1149.358km
周期 108.326分钟 108.326分钟
每日圈数 13.293254 13.293245
Detailed Information
使用方式:
暂无
2D Orbit Map
3D Orbit Map
Orbit Altitude Analysis Chart
Orbit Inclination Analysis Chart
Orbit Comprehensive Analysis Chart
View Comprehensive Chart